DW8086 Weather Reports


time (UTC)temp
C
wind
direction
speed
KPH
gust
KPH
rain 1hr
cm
rain 24hr
cm
rain mn
cm
humidity
%
barometer
mb
20260505092516 15 225 3.2 8.0 0.00 0.00 0.00 80 1011.2
20260505091516 15 225 9.7 12.9 0.00 0.00 0.00 80 1011.1
20260505090516 15 225 3.2 6.4 0.00 0.00 0.00 80 1011.1
20260505085536 15 203 3.2 6.4 0.00 0.00 0.00 80 1011.2
20260505084516 15 203 3.2 4.8 0.00 0.00 0.00 79 1011.1
20260505083536 15 225 4.8 6.4 0.00 0.00 0.00 80 1011.0
20260505082516 15 203 6.4 16.1 0.00 0.00 0.00 79 1011.1
20260505081516 15 203 6.4 9.7 0.00 0.00 0.00 79 1011.1
20260505080516 15 225 4.8 11.3 0.00 0.00 0.00 79 1011.1
20260505075516 15 203 8.0 11.3 0.00 0.00 0.00 79 1011.0
20260505074516 15 203 4.8 8.0 0.00 0.00 0.00 78 1011.0
20260505073516 15 180 6.4 11.3 0.00 0.00 0.00 78 1011.0
20260505072516 15 180 1.6 4.8 0.00 0.00 0.00 78 1010.9
20260505071516 15 180 1.6 4.8 0.00 0.00 0.00 79 1010.8
20260505070516 15 0.0 3.2 0.00 0.00 0.00 79 1010.8
20260505065516 14 113 1.6 3.2 0.00 0.00 0.00 79 1010.8
20260505064536 14 113 1.6 3.2 0.00 0.00 0.00 79 1011.0
20260505063536 14 0.0 1.6 0.00 0.00 0.00 79 1011.0
20260505062516 15 180 1.6 4.8 0.00 0.00 0.00 78 1011.0
20260505061537 15 180 1.6 3.2 0.00 0.00 0.00 78 1011.0
20260505060516 15 180 1.6 4.8 0.00 0.00 0.00 77 1011.1
20260505055516 15 0.0 0.0 0.00 0.00 0.00 75 1011.1
20260505054516 15 180 1.6 4.8 0.00 0.00 0.00 75 1011.3
20260505053516 15 180 3.2 4.8 0.00 0.00 0.00 74 1011.2
20260505052517 15 203 3.2 4.8 0.00 0.00 0.00 74 1011.1
20260505051516 16 180 1.6 4.8 0.00 0.00 0.00 72 1011.2
20260505050516 16 203 1.6 3.2 0.00 0.00 0.00 72 1011.2
20260505041536 16 180 8.0 16.1 0.00 0.00 0.00 69 1011.5
20260505040516 16 180 4.8 9.7 0.00 0.00 0.00 69 1011.4
20260505035515 16 180 6.4 11.3 0.00 0.00 0.00 69 1011.4
20260505034515 16 225 3.2 6.4 0.00 0.00 0.00 68 1011.5
20260505033515 16 203 6.4 12.9 0.00 0.00 0.00 68 1011.5
20260505032535 16 180 3.2 6.4 0.00 0.00 0.00 69 1011.5
20260505031515 16 203 4.8 9.7 0.00 0.00 0.00 68 1011.7
20260505030515 16 180 4.8 6.4 0.00 0.00 0.00 68 1011.7
20260505025515 16 203 4.8 9.7 0.00 0.00 0.00 68 1011.9
20260505024515 16 203 3.2 8.0 0.00 0.00 0.00 68 1011.8
20260505023515 16 180 3.2 9.7 0.00 0.00 0.00 68 1011.9
20260505022515 16 203 3.2 4.8 0.00 0.00 0.00 67 1011.9
20260505021535 16 180 6.4 9.7 0.00 0.00 0.00 67 1012.0
20260505020515 16 0.0 1.6 0.00 0.00 0.00 66 1012.0
20260505015535 16 113 1.6 6.4 0.00 0.00 0.00 65 1012.0
20260505014555 16 135 3.2 6.4 0.00 0.00 0.00 64 1011.9
20260505013515 16 0.0 3.2 0.00 0.00 0.00 62 1011.9
20260505012515 16 203 4.8 9.7 0.00 0.00 0.00 61 1011.8
20260505011515 17 203 3.2 6.4 0.00 0.00 0.00 60 1011.7
20260505010535 17 113 3.2 6.4 0.00 0.00 0.00 58 1011.5
20260505005515 17 0.0 1.6 0.00 0.00 0.00 57 1011.4
20260505004515 17 180 4.8 6.4 0.00 0.00 0.00 55 1011.3
20260505003515 18 158 1.6 4.8 0.00 0.00 0.00 54 1011.2
20260505002515 18 180 1.6 3.2 0.00 0.00 0.00 54 1011.1
20260505001535 18 135 3.2 4.8 0.00 0.00 0.00 53 1011.0
20260505000515 18 180 3.2 4.8 0.00 0.00 0.00 52 1010.8
20260504235515 19 203 3.2 8.0 0.00 0.00 0.00 51 1010.6
20260504234515 19 203 6.4 11.3 0.00 0.00 0.00 51 1010.6
20260504233515 20 180 4.8 11.3 0.00 0.00 0.00 50 1010.4
20260504232535 20 203 6.4 11.3 0.00 0.00 0.00 50 1010.3
20260504231515 20 135 3.2 6.4 0.00 0.00 0.00 49 1010.2
20260504230515 21 225 6.4 9.7 0.00 0.00 0.00 48 1010.2
20260504225516 21 135 4.8 9.7 0.00 0.00 0.00 47 1010.1
20260504224535 22 203 6.4 9.7 0.00 0.00 0.00 43 1010.1
20260504223515 22 203 4.8 9.7 0.00 0.00 0.00 35 1009.9
20260504222515 23 248 4.8 8.0 0.00 0.00 0.00 35 1009.8
20260504221516 22 270 3.2 9.7 0.00 0.00 0.00 36 1009.9
20260504220515 23 203 6.4 9.7 0.00 0.00 0.00 36 1010.0
20260504215515 22 203 6.4 8.0 0.00 0.00 0.00 36 1010.1
20260504214515 23 248 6.4 11.3 0.00 0.00 0.00 35 1010.1
20260504213515 23 203 4.8 9.7 0.00 0.00 0.00 36 1010.1
20260504212515 23 248 6.4 11.3 0.00 0.00 0.00 35 1010.2
20260504211535 23 225 9.7 20.9 0.00 0.00 0.00 36 1010.2
20260504210515 23 248 6.4 11.3 0.00 0.00 0.00 36 1010.1
20260504205515 23 203 4.8 9.7 0.00 0.00 0.00 36 1010.2
20260504204515 23 248 11.3 17.7 0.00 0.00 0.00 35 1010.2
20260504203515 23 203 8.0 17.7 0.00 0.00 0.00 35 1010.2
20260504202515 23 270 4.8 8.0 0.00 0.00 0.00 35 1010.1
20260504201515 23 248 6.4 11.3 0.00 0.00 0.00 38 1010.1
20260504200516 23 225 9.7 14.5 0.00 0.00 0.00 36 1010.3
20260504195515 23 203 6.4 11.3 0.00 0.00 0.00 38 1010.5
20260504194515 22 203 6.4 11.3 0.00 0.00 0.00 38 1010.5
20260504193515 22 203 12.9 19.3 0.00 0.00 0.00 36 1010.6
20260504192515 22 203 9.7 12.9 0.00 0.00 0.00 36 1010.8
20260504191515 22 203 9.7 19.3 0.00 0.00 0.00 36 1010.9
20260504190515 22 203 9.7 16.1 0.00 0.00 0.00 39 1011.2
20260504185515 22 158 8.0 16.1 0.00 0.00 0.00 36 1011.2
20260504184515 22 293 4.8 9.7 0.00 0.00 0.00 38 1011.3
20260504183515 22 270 14.5 27.4 0.00 0.00 0.00 38 1011.5
20260504182515 21 248 12.9 22.5 0.00 0.00 0.00 36 1011.6
20260504181516 22 225 6.4 11.3 0.00 0.00 0.00 39 1011.8
20260504180516 21 203 6.4 9.7 0.00 0.00 0.00 39 1011.8
20260504175515 21 270 8.0 12.9 0.00 0.00 0.00 40 1011.9
20260504174515 21 203 6.4 14.5 0.00 0.00 0.00 38 1012.1
20260504173515 21 248 14.5 27.4 0.00 0.00 0.00 41 1012.2
20260504172535 21 158 6.4 12.9 0.00 0.00 0.00 43 1012.3
20260504171515 20 203 3.2 6.4 0.00 0.00 0.00 42 1012.4
20260504170536 21 225 8.0 16.1 0.00 0.00 0.00 44 1012.6
20260504150535 18 203 6.4 9.7 0.00 0.00 0.00 48 1013.9
20260504140542 17 225 8.0 14.5 0.00 0.00 0.00 50 1014.2
20260504130515 15 225 8.0 12.9 0.00 0.00 0.00 59 1015.0
20260504110516 9 180 6.4 9.7 0.00 0.00 0.00 75 1015.5
20260504100516 7 180 3.2 6.4 0.00 0.00 0.00 74 1015.3